EW8486 Weather Reports


Display with metric or nautical units.
time (UTC)temp
F
wind
direction
speed
MPH
gust
MPH
rain 1hr
in
rain 24hr
in
rain mn
in
humidity
%
barometer
mb
20260508012036 76 45 3.0 7.0 0.00 0.00 0.00 27 1011.4
20260508010516 76 45 3.0 7.0 0.00 0.00 0.00 28 1011.4
20260508005017 76 45 2.0 4.0 0.00 0.00 0.00 28 1011.5
20260508003516 77 45 2.0 5.0 0.00 0.00 0.00 29 1011.6
20260508002016 77 68 1.0 3.0 0.00 0.00 0.00 29 1011.7
20260508000516 77 113 2.0 6.0 0.00 0.00 0.00 27 1011.6
20260507235016 78 113 2.0 4.0 0.00 0.00 0.00 30 1011.8
20260507233516 79 45 3.0 9.0 0.00 0.00 0.00 26 1011.9
20260507232016 79 90 2.0 7.0 0.00 0.00 0.00 26 1012.0
20260507230516 79 45 3.0 10.0 0.00 0.00 0.00 28 1012.2
20260507225016 79 45 3.0 8.0 0.00 0.00 0.00 26 1012.3
20260507223516 80 45 5.0 10.0 0.00 0.00 0.00 26 1012.5
20260507222016 81 45 3.0 8.0 0.00 0.00 0.00 24 1013.0
20260507220516 80 45 3.0 10.0 0.00 0.00 0.00 25 1013.3
20260507215016 80 45 4.0 10.0 0.00 0.00 0.00 25 1013.3
20260507213516 79 45 3.0 8.0 0.00 0.00 0.00 25 1013.4
20260507212016 78 45 3.0 11.0 0.00 0.00 0.00 27 1013.6
20260507210516 77 45 5.0 11.0 0.00 0.00 0.00 29 1013.8
20260507205036 78 45 4.0 9.0 0.00 0.00 0.00 27 1013.9
20260507203516 77 45 6.0 13.0 0.00 0.00 0.00 26 1014.0
20260507202016 78 45 5.0 14.0 0.00 0.00 0.00 26 1014.6
20260507200516 77 68 5.0 12.0 0.00 0.00 0.00 28 1014.7
20260507195016 76 45 5.0 9.0 0.00 0.00 0.00 29 1014.8
20260507193516 75 45 2.0 9.0 0.00 0.00 0.00 34 1014.9
20260507192015 70 180 2.0 4.0 0.00 0.00 0.00 39 1014.9
20260507190515 68 225 2.0 3.0 0.00 0.00 0.00 39 1014.9
20260507185016 68 180 3.0 5.0 0.00 0.00 0.00 39 1015.0
20260507183515 67 158 3.0 5.0 0.00 0.00 0.00 39 1015.3
20260507182015 68 180 3.0 5.0 0.00 0.00 0.00 40 1015.5
20260507180516 66 135 1.0 4.0 0.00 0.00 0.00 43 1015.5
20260507175016 64 158 2.0 5.0 0.00 0.00 0.00 48 1015.7
20260507173515 63 158 2.0 4.0 0.00 0.00 0.00 50 1015.7
20260507172016 63 180 2.0 5.0 0.00 0.00 0.00 49 1015.9
20260507170515 62 180 4.0 6.0 0.00 0.00 0.00 50 1015.9
20260507165015 64 180 1.0 3.0 0.00 0.00 0.00 47 1016.0
20260507163516 63 203 1.0 4.0 0.00 0.00 0.00 50 1016.2
20260507162015 63 180 3.0 7.0 0.00 0.00 0.00 48 1016.3
20260507160535 61 180 4.0 7.0 0.00 0.00 0.00 52 1016.4
20260507155015 59 180 4.0 7.0 0.00 0.00 0.00 59 1016.7
20260507153515 58 203 2.0 5.0 0.00 0.00 0.00 63 1016.7
20260507152015 58 180 3.0 4.0 0.00 0.00 0.00 61 1016.8
20260507150535 58 203 3.0 5.0 0.00 0.00 0.00 57 1016.9
20260507145017 59 203 2.0 4.0 0.00 0.00 0.00 53 1017.0
20260507143638 59 225 1.0 3.0 0.00 0.00 0.00 54 1017.1
20260507142017 58 225 1.0 4.0 0.00 0.00 0.00 57 1017.2
20260507140517 57 180 1.0 4.0 0.00 0.00 0.00 58 1017.0
20260507135037 58 180 2.0 5.0 0.00 0.00 0.00 53 1016.8
20260507133517 57 180 1.0 2.0 0.00 0.00 0.00 57 1016.9
20260507132017 59 68 3.0 6.0 0.00 0.00 0.00 53 1017.0
20260507130517 59 135 2.0 5.0 0.00 0.00 0.00 49 1017.0
20260507125037 59 248 4.0 11.0 0.00 0.00 0.00 49 1017.0
20260507123537 59 270 2.0 6.0 0.00 0.00 0.00 50 1016.8
20260507122017 59 248 2.0 4.0 0.00 0.00 0.00 51 1016.7
20260507120517 59 270 2.0 6.0 0.00 0.00 0.00 52 1016.6
20260507115037 59 270 2.0 8.0 0.00 0.00 0.00 51 1016.7
20260507113516 59 270 2.0 8.0 0.00 0.00 0.00 51 1016.6
20260507112037 59 225 1.0 5.0 0.00 0.00 0.00 51 1016.6
20260507110516 59 315 2.0 6.0 0.00 0.00 0.00 51 1016.5
20260507105017 59 293 1.0 3.0 0.00 0.00 0.00 51 1016.4
20260507103557 60 270 3.0 7.0 0.00 0.00 0.00 50 1016.4
20260507102016 60 270 4.0 13.0 0.00 0.00 0.00 50 1016.2
20260507100516 60 248 3.0 9.0 0.00 0.00 0.00 50 1015.8
20260507095017 61 270 4.0 9.0 0.00 0.00 0.00 50 1015.8
20260507093517 60 270 5.0 12.0 0.00 0.00 0.00 50 1015.8
20260507092016 60 270 3.0 8.0 0.00 0.00 0.00 51 1015.4
20260507090516 61 270 5.0 13.0 0.00 0.00 0.00 49 1015.5
20260507085016 61 203 3.0 8.0 0.00 0.00 0.00 49 1015.2
20260507083516 61 270 4.0 11.0 0.00 0.00 0.00 49 1015.1
20260507082057 62 270 4.0 8.0 0.00 0.00 0.00 48 1015.0
20260507080516 63 270 5.0 12.0 0.00 0.00 0.00 47 1014.9
20260507075017 62 293 4.0 11.0 0.00 0.00 0.00 48 1014.6
20260507073516 62 270 5.0 12.0 0.00 0.00 0.00 48 1014.4
20260507072016 62 248 2.0 8.0 0.00 0.00 0.00 48 1014.3
20260507070517 62 270 3.0 11.0 0.00 0.00 0.00 48 1014.0
20260507065015 63 270 5.0 15.0 0.00 0.00 0.00 46 1014.0
20260507063517 63 270 5.0 15.0 0.00 0.00 0.00 47 1013.7
20260507062017 64 315 4.0 12.0 0.00 0.00 0.00 46 1013.5
20260507060517 63 0 5.0 14.0 0.00 0.00 0.00 47 1013.4
20260507055017 64 225 3.0 8.0 0.00 0.00 0.00 45 1013.6
20260507053517 65 338 4.0 11.0 0.00 0.00 0.00 45 1013.2
20260507052017 66 270 5.0 14.0 0.00 0.00 0.00 43 1012.8
20260507050517 66 248 2.0 9.0 0.00 0.00 0.00 43 1012.5
20260507045037 67 248 2.0 7.0 0.00 0.00 0.00 42 1012.2
20260507043517 67 248 2.0 4.0 0.00 0.00 0.00 43 1012.5
20260507042037 67 270 3.0 9.0 0.00 0.00 0.00 43 1012.1
20260507040517 68 293 3.0 11.0 0.00 0.00 0.00 42 1012.0
20260507035017 68 0 4.0 10.0 0.00 0.00 0.00 41 1011.9
20260507033517 69 270 3.0 9.0 0.00 0.00 0.00 39 1011.4
20260507032037 69 248 2.0 5.0 0.00 0.00 0.00 40 1011.2
20260507030516 69 68 1.0 3.0 0.00 0.00 0.00 42 1010.9
20260507025017 68 248 1.0 3.0 0.00 0.00 0.00 43 1010.6
20260507023517 70 180 2.0 5.0 0.00 0.00 0.00 40 1010.3
20260507022017 72 180 7.0 16.0 0.00 0.00 0.00 38 1010.1
20260507020516 73 180 7.0 18.0 0.00 0.00 0.00 37 1010.0
20260507015017 74 180 8.0 16.0 0.00 0.00 0.00 35 1009.9
20260507013517 73 270 4.0 10.0 0.00 0.00 0.00 35 1009.9